Regional Weather Roundup
Issued by NWS

Home | Current Version | Previous Version | Graphics & Text | Print | Product List | Glossary On
Versions: 1 2 3 4 5 6 7 8 9 10 11 12 13 14 15 16 17 18 19 20 21 22 23 24 25 26 27 28 29 30 31 32 33 34 35 36 37 38 39 40 41 42 43 44 45 46 47 48 49 50
000
ASUS43 KTOP 242308
RWRKS

WEATHER ROUNDUP FOR KANSAS
NATIONAL WEATHER SERVICE GOODLAND KS
600 PM CDT THU MAY 24 2018

NOTE:  "FAIR" INDICATES FEW OR NO CLOUDS BELOW 12,000 FEET WITH NO
SIGNIFICANT WEATHER AND/OR OBSTRUCTIONS TO VISIBILITY.

KSZ001>006-013>018-027>032-041>047-250000-
NORTHWEST KANSAS

CITY           SKY/WX    TMP DP  RH WIND       PRES   REMARKS
GOODLAND       MOSUNNY   84  54  35 CALM      29.97F
HAYS           SUNNY     86  66  51 S14G23    29.92F
HILL CITY      MOSUNNY   88  63  43 SE14G25   29.90F
RUSSELL        SUNNY     86  64  47 S15       29.92F
$$

KSZ061>065-074>080-084>089-250000-
SOUTHWEST KANSAS

CITY           SKY/WX    TMP DP  RH WIND       PRES   REMARKS
DODGE CITY     MOSUNNY   90  59  35 S17G29    29.94F
ELKHART        SUNNY     90  56  32 S17G35    29.96F
GARDEN CITY    SUNNY     89  53  29 SW17G25   29.93F
GREAT BEND     SUNNY     83  67  58 S14       29.95F
LIBERAL        SUNNY     89  56  32 S23       29.95F
PRATT          SUNNY     83  63  50 S14       29.96F
$$

KSZ066>073-081>083-090>101-250000-
SOUTHEAST KANSAS

CITY           SKY/WX    TMP DP  RH WIND       PRES   REMARKS
CHANUTE        PTSUNNY   85  71  63 S16       29.99S
COFFEYVILLE    MOSUNNY   84  67  56 S9        29.98S
HUTCHINSON     CLOUDY    86  64  47 S12       29.94F
MEDICINE LODGE   N/A     86  66  51 S12       29.94S
NEWTON         CLOUDY    83  70  64 SE10      29.97F
PARSONS        CLOUDY    83  70  64 S8        30.00S
WICHITA INTL   PTSUNNY   85  71  63 SE8       29.94F
WICHITA JABRA  CLOUDY    81  71  71 SE9       29.95F
WICHITA MCCONL CLOUDY    82  69  65 SE10      29.95F
WINFIELD       CLOUDY    80  69  69 S13       29.97F
$$

KSZ007>012-019>026-033>040-048>060-102>105-250000-
NORTHEAST KANSAS

CITY           SKY/WX    TMP DP  RH WIND       PRES   REMARKS
CONCORDIA      CLOUDY    82  63  52 S9        29.94F
EMPORIA        CLOUDY    71  67  87 VRB3      30.00S
LAWRENCE       LGT RAIN  72  67  84 S10G23    30.02R
MANHATTAN      CLOUDY    79  64  60 S10       29.97S
MARYSVILLE     CLOUDY    84  64  51 S14G21    29.94S
OLATHE IND     LGT RAIN  70  65  84 SW18G29   30.06R
OLATHE EXE     CLOUDY    73  68  84 W8        30.04R
SALINA         CLOUDY    85  64  49 S14       29.94F
TOPEKA BILLARD LGT RAIN  70  69  97 S9        29.99F
TOPEKA FORBES  LGT RAIN  70  67  90 SE7       30.01F
$$




USA.gov is the U.S. government's official web portal to all federal, state and local government web resources and services.